When you browse on this site, cookies collect data to enhance your experience and personalize the content and advertising you see.
Visit our Privacy Policy to learn more. By continuing to use the site, you agree to this use of cookies and data.
  • In Österreich
  • Länderverzeichnis
  • Für 7 Tage
  • Wassertemperatur
  • Satellitenkarten
  • Wetterkarte
  • News
  • Widgets
  • user-avatar
    Anmelden

    Stündliche Wetter Helenopol

    Heute, 16 Januar, Mittwoch

    Zeit Temperatur Niederschläge Wind Luftdruck Luftfeuchtigkeit
    00:00 +2°C° 0.1 mm 9 m/S 745 mmHg 86%
    01:00 +3°C° 0 mm 7 m/S 745 mmHg 85%
    02:00 +3°C° 0.4 mm 7 m/S 745 mmHg 87%
    03:00 +3°C° 0.4 mm 6 m/S 745 mmHg 89%
    04:00 +3°C° 0.4 mm 6 m/S 746 mmHg 91%
    05:00 +3°C° 0.5 mm 6 m/S 746 mmHg 90%
    06:00 +4°C° 0.5 mm 7 m/S 746 mmHg 89%
    07:00 +4°C° 0.5 mm 7 m/S 746 mmHg 88%
    08:00 +4°C° 0.1 mm 7 m/S 747 mmHg 86%
    09:00 +4°C° 0.1 mm 7 m/S 747 mmHg 85%
    10:00 +4°C° 0.1 mm 7 m/S 747 mmHg 83%
    11:00 +4°C° 0 mm 7 m/S 747 mmHg 83%
    12:00 +4°C° 0 mm 7 m/S 747 mmHg 82%
    13:00 +4°C° 0 mm 7 m/S 747 mmHg 82%
    14:00 +4°C° 0 mm 6 m/S 747 mmHg 82%
    15:00 +4°C° 0 mm 6 m/S 747 mmHg 83%
    16:00 +5°C° 0 mm 5 m/S 747 mmHg 83%
    17:00 +3°C° 0 mm 5 m/S 747 mmHg 82%
    18:00 +3°C° 0 mm 5 m/S 746 mmHg 81%
    19:00 +3°C° 0 mm 6 m/S 746 mmHg 81%
    20:00 +3°C° 0 mm 5 m/S 746 mmHg 81%
    21:00 +2°C° 0 mm 5 m/S 745 mmHg 81%
    22:00 +2°C° 0 mm 5 m/S 745 mmHg 81%
    23:00 +2°C° 0 mm 5 m/S 744 mmHg 79%

    Morgen, 17 Januar, Donnerstag

    Zeit Temperatur Niederschläge Wind Luftdruck Luftfeuchtigkeit
    00:00 +2°C° 0 mm 6 m/S 744 mmHg 77%
    01:00 +2°C° 0 mm 6 m/S 743 mmHg 75%
    02:00 +2°C° 0 mm 6 m/S 743 mmHg 73%
    03:00 +2°C° 0 mm 6 m/S 742 mmHg 71%
    04:00 +1°C° 0 mm 6 m/S 742 mmHg 69%
    05:00 0°C° 0 mm 7 m/S 742 mmHg 70%
    06:00 0°C° 0 mm 7 m/S 742 mmHg 70%
    07:00 0°C° 0 mm 7 m/S 741 mmHg 70%
    08:00 +1°C° 0 mm 8 m/S 742 mmHg 72%
    09:00 +1°C° 0 mm 8 m/S 742 mmHg 74%
    10:00 +2°C° 0 mm 8 m/S 742 mmHg 76%
    11:00 +4°C° 0 mm 8 m/S 742 mmHg 72%
    12:00 +4°C° 0 mm 8 m/S 742 mmHg 67%
    13:00 +5°C° 0 mm 8 m/S 742 mmHg 63%
    14:00 +4°C° 0 mm 7 m/S 742 mmHg 65%
    15:00 +4°C° 0 mm 6 m/S 742 mmHg 67%
    16:00 +3°C° 0 mm 6 m/S 741 mmHg 69%
    17:00 +3°C° 0 mm 7 m/S 741 mmHg 69%
    18:00 +2°C° 0 mm 8 m/S 741 mmHg 70%
    19:00 +2°C° 0 mm 9 m/S 741 mmHg 70%
    20:00 +1°C° 0.2 mm 9 m/S 742 mmHg 68%
    21:00 +1°C° 0.2 mm 8 m/S 742 mmHg 66%
    22:00 0°C° 0.2 mm 8 m/S 743 mmHg 64%
    23:00 -1°C° 0 mm 8 m/S 743 mmHg 65%

    übermorgen, 18 Januar, Freitag

    Zeit Temperatur Niederschläge Wind Luftdruck Luftfeuchtigkeit
    00:00 -1°C° 0 mm 7 m/S 744 mmHg 67%
    01:00 -2°C° 0 mm 7 m/S 744 mmHg 68%
    02:00 -2°C° 0.1 mm 8 m/S 744 mmHg 68%
    03:00 -2°C° 0.1 mm 8 m/S 744 mmHg 68%
    04:00 -2°C° 0.1 mm 8 m/S 745 mmHg 69%
    05:00 -2°C° 0.3 mm 8 m/S 746 mmHg 72%
    06:00 -2°C° 0.3 mm 8 m/S 746 mmHg 75%
    07:00 -4°C° 0.3 mm 9 m/S 747 mmHg 78%
    08:00 -2°C° 0 mm 8 m/S 749 mmHg 78%
    09:00 -2°C° 0 mm 8 m/S 750 mmHg 79%
    10:00 -2°C° 0 mm 7 m/S 751 mmHg 79%
    11:00 -2°C° 0 mm 7 m/S 752 mmHg 74%
    12:00 -2°C° 0 mm 6 m/S 753 mmHg 69%
    13:00 -2°C° 0 mm 6 m/S 753 mmHg 64%
    14:00 -1°C° 0 mm 5 m/S 754 mmHg 68%
    15:00 -2°C° 0 mm 4 m/S 755 mmHg 71%
    16:00 -1°C° 0 mm 3 m/S 755 mmHg 75%
    17:00 -2°C° 0 mm 3 m/S 756 mmHg 78%
    18:00 -2°C° 0 mm 3 m/S 756 mmHg 80%
    19:00 -3°C° 0 mm 2 m/S 756 mmHg 83%
    20:00 -3°C° 0 mm 2 m/S 756 mmHg 84%
    21:00 -3°C° 0 mm 2 m/S 757 mmHg 86%
    22:00 -3°C° 0 mm 2 m/S 757 mmHg 88%
    23:00 -4°C° 0 mm 3 m/S 757 mmHg 88%

    19 Januar, Samstag

    Zeit Temperatur Niederschläge Wind Luftdruck Luftfeuchtigkeit
    00:00 -4°C° 0 mm 3 m/S 757 mmHg 88%
    01:00 -4°C° 0 mm 3 m/S 757 mmHg 88%
    02:00 -4°C° 0 mm 3 m/S 757 mmHg 86%
    03:00 -4°C° 0 mm 3 m/S 757 mmHg 84%
    04:00 -4°C° 0 mm 3 m/S 757 mmHg 82%
    05:00 -4°C° 0 mm 3 m/S 757 mmHg 80%
    06:00 -3°C° 0 mm 2 m/S 757 mmHg 79%
    07:00 -3°C° 0 mm 2 m/S 757 mmHg 77%
    08:00 -2°C° 0 mm 2 m/S 757 mmHg 74%
    09:00 -2°C° 0 mm 2 m/S 757 mmHg 70%
    10:00 -1°C° 0 mm 2 m/S 757 mmHg 67%
    11:00 -1°C° 0 mm 2 m/S 757 mmHg 64%
    12:00 +1°C° 0 mm 2 m/S 757 mmHg 61%
    13:00 +2°C° 0 mm 2 m/S 757 mmHg 58%
    14:00 +2°C° 0 mm 1 m/S 756 mmHg 60%
    15:00 +1°C° 0 mm 1 m/S 756 mmHg 63%
    16:00 0°C° 0 mm 0 m/S 756 mmHg 66%
    17:00 0°C° 0 mm 1 m/S 756 mmHg 66%
    18:00 0°C° 0 mm 1 m/S 756 mmHg 67%
    19:00 0°C° 0 mm 1 m/S 756 mmHg 67%
    20:00 0°C° 0 mm 1 m/S 756 mmHg 68%
    21:00 -1°C° 0 mm 1 m/S 756 mmHg 68%
    22:00 -1°C° 0 mm 1 m/S 757 mmHg 69%
    23:00 -1°C° 0 mm 1 m/S 757 mmHg 69%

    20 Januar, Sonntag

    Zeit Temperatur Niederschläge Wind Luftdruck Luftfeuchtigkeit
    00:00 -1°C° 0 mm 1 m/S 757 mmHg 70%
    01:00 -2°C° 0 mm 0 m/S 756 mmHg 71%
    02:00 -2°C° 0 mm 0 m/S 756 mmHg 71%
    03:00 -2°C° 0 mm 0 m/S 756 mmHg 71%
    04:00 -2°C° 0 mm 0 m/S 756 mmHg 71%
    05:00 -2°C° 0 mm 0 m/S 756 mmHg 71%
    06:00 -2°C° 0 mm 0 m/S 757 mmHg 71%
    07:00 -3°C° 0 mm 0 m/S 757 mmHg 71%
    08:00 -1°C° 0 mm 1 m/S 757 mmHg 69%
    09:00 0°C° 0 mm 1 m/S 757 mmHg 67%
    10:00 0°C° 0 mm 1 m/S 758 mmHg 64%
    11:00 -1°C° 0 mm 2 m/S 758 mmHg 63%
    12:00 +1°C° 0 mm 2 m/S 758 mmHg 62%
    13:00 +1°C° 0 mm 2 m/S 758 mmHg 60%
    14:00 +1°C° 0 mm 2 m/S 758 mmHg 65%
    15:00 -1°C° 0 mm 2 m/S 758 mmHg 70%
    16:00 -2°C° 0 mm 2 m/S 758 mmHg 74%
    17:00 -2°C° 0 mm 2 m/S 758 mmHg 77%
    18:00 -2°C° 0 mm 2 m/S 759 mmHg 79%
    19:00 -2°C° 0 mm 2 m/S 759 mmHg 81%
    20:00 -2°C° 0 mm 2 m/S 760 mmHg 83%
    21:00 -3°C° 0 mm 2 m/S 760 mmHg 86%
    22:00 -4°C° 0 mm 2 m/S 761 mmHg 88%
    23:00 -4°C° 0 mm 2 m/S 761 mmHg 85%

    21 Januar, Montag

    Zeit Temperatur Niederschläge Wind Luftdruck Luftfeuchtigkeit
    00:00 -4°C° 0 mm 2 m/S 762 mmHg 83%
    01:00 -4°C° 0 mm 2 m/S 762 mmHg 80%
    02:00 -4°C° 0 mm 2 m/S 762 mmHg 79%
    03:00 -4°C° 0 mm 2 m/S 763 mmHg 78%
    04:00 -4°C° 0 mm 2 m/S 763 mmHg 77%
    05:00 -5°C° 0 mm 2 m/S 763 mmHg 77%
    06:00 -5°C° 0 mm 2 m/S 764 mmHg 77%
    07:00 -5°C° 0 mm 2 m/S 764 mmHg 76%
    08:00 -2°C° 0 mm 1 m/S 765 mmHg 73%
    09:00 -2°C° 0 mm 1 m/S 765 mmHg 70%
    10:00 -1°C° 0 mm 1 m/S 765 mmHg 67%
    11:00 -1°C° 0 mm 1 m/S 765 mmHg 64%
    12:00 0°C° 0 mm 1 m/S 765 mmHg 60%
    13:00 0°C° 0 mm 1 m/S 765 mmHg 57%
    14:00 0°C° 0 mm 1 m/S 765 mmHg 59%
    15:00 -1°C° 0 mm 1 m/S 765 mmHg 62%
    16:00 -2°C° 0 mm 0 m/S 765 mmHg 65%
    17:00 -1°C° 0 mm 1 m/S 765 mmHg 66%
    18:00 -2°C° 0 mm 1 m/S 765 mmHg 67%
    19:00 -2°C° 0 mm 1 m/S 765 mmHg 69%
    20:00 -2°C° 0 mm 1 m/S 765 mmHg 70%
    21:00 -2°C° 0 mm 1 m/S 765 mmHg 70%
    22:00 -3°C° 0 mm 1 m/S 765 mmHg 71%
    23:00 -3°C° 0 mm 1 m/S 765 mmHg 72%
    Mehr zeigen